Hourly Data Report for October 03, 2015

All times are specified in Local Standard Time (LST). Add 1 hour to adjust for Daylight Saving Time where and when it is observed.

MONCTON INTL A
NEW BRUNSWICK

46°06'44.000" N
64°40'43.000" W
70.70 m
8103201
71705
YQM

Download Data

Hourly Data (October 2015)
Hourly Data Report for October 3, 2015
Temp Definition
°C
Dew Point Temp Definition
°C
Rel Hum Definition
%
Wind Dir Definition
10's deg

Wind Spd Definition
km/h
Visibility Definition
km
Stn Press Definition
kPa
Hmdx Definition


Wind Chill Definition


Weather Definition


TIME
00:00 Legend Double Dagger 8.6 5.7 82 1 27 24.1 102.04     LegendNANA
01:00 Legend Double Dagger 8.7 6.0 83 1 26 24.1 102.01     LegendNANA
02:00 Legend Double Dagger 8.4 6.7 89 36 24 16.1 102.04     Rain Showers
03:00 Legend Double Dagger 8.2 6.7 90 1 22 19.3 102.04     Rain Showers
04:00 Legend Double Dagger 8.3 6.1 86 1 29 24.1 102.05     Rain Showers
05:00 Legend Double Dagger 8.0 6.9 93 36 26 9.7 102.04     Rain Showers,Fog
06:00 Legend Double Dagger 8.2 7.1 93 35 29 12.9 102.08     Rain Showers
07:00 Legend Double Dagger 8.3 7.2 93 36 22 4.0 102.16     Rain,Fog
08:00 Legend Double Dagger 8.5 7.4 93 1 29 24.1 102.20     Rain
09:00 Legend Double Dagger 10.0 7.6 85 2 29 24.1 102.24     LegendNANA
10:00 Legend Double Dagger 9.6 6.3 80 1 30 24.1 102.29     LegendNANA
11:00 Legend Double Dagger 9.9 3.4 64 2 37 24.1 102.32     Mostly Cloudy
12:00 Legend Double Dagger 10.4 3.5 62 2 32 24.1 102.37     LegendNANA
13:00 Legend Double Dagger 9.9 7.0 82 36 29 24.1 102.42     LegendNANA
14:00 Legend Double Dagger 8.7 5.5 80 1 28 24.1 102.40     Rain Showers
15:00 Legend Double Dagger 10.1 3.6 64 36 37 24.1 102.40     LegendNANA
16:00 Legend Double Dagger 8.4 0.6 58 1 35 24.1 102.40     LegendNANA
17:00 Legend Double Dagger 8.5 1.2 60 2 29 24.1 102.44     Mainly Clear
18:00 Legend Double Dagger 6.6 1.1 68 36 19 24.1 102.48     LegendNANA
19:00 Legend Double Dagger 4.9 1.2 77 35 14 24.1 102.50     LegendNANA
20:00 Legend Double Dagger 5.2 1.0 74 1 15 24.1 102.51     Mainly Clear
21:00 Legend Double Dagger 3.6 1.3 85 34 14 24.1 102.54     LegendNANA
22:00 Legend Double Dagger 1.9 0.7 92 32 9 24.1 102.51     LegendNANA
23:00 Legend Double Dagger 2.3 1.0 91 33 5 24.1 102.50     Clear

Notes on Data Quality.

Legend

  • E = Estimated
  • M = Missing
  • NA = Not Available
  • ‡ = Partner data that is not subject to review by the National Climate Archives
Date modified: